Saipan, MP

5:17 AM ChST on December 06, 2016 (GMT +1000)
Saipan International

Weather History for PGSN - June, 2013

Change the Weather History Date:

Monday, June 24, 2013

  Actual Average Record
Temperature  
Mean Temperature 80 °F -  
Max Temperature 86 °F 85 °F 90 °F (2012)
Min Temperature 75 °F 76 °F 75 °F (2013)
Cooling Degree Days 16    
Growing Degree Days 30 (Base 50)    
Moisture  
Dew Point 75 °F    
Average Humidity 82    
Maximum Humidity 89    
Minimum Humidity 70    
Precipitation  
Precipitation 0.03 in - - ()
Sea Level Pressure  
Sea Level Pressure 29.97 in    
Wind  
Wind Speed 11 mph (East)    
Max Wind Speed 16 mph    
Max Gust Speed 20 mph    
Visibility 10 miles    
Events Rain    
Averages and records for this station are not official NWS values.
T = Trace of Precipitation, MM = Missing Value Source: NWS Daily Summary

Daily Weather History Graph

Daily Weather History Graph

Search for Another Location

Airport or City:

Trip Planner

Search our weather history database for the weather conditions in past years. The results will help you decide how hot, cold, wet, or windy it might be!

Date:

Astronomy

Jun. 24, 2013 Rise Set
Actual Time 5:48 AM ChST 6:50 PM ChST
Civil Twilight 5:25 AM ChST 7:13 PM ChST
Nautical Twilight 4:57 AM ChST 7:41 PM ChST
Astronomical Twilight 4:28 AM ChST 8:10 PM ChST
Moon 7:35 PM ChST (6/24) 6:19 AM ChST (6/24)
Length of Visible Light 13h 48m
Length of Day
13h 01m
Waxing Gibbous, 99% of the Moon is Illuminated
Jun 24
Waxing Gibbous
Jun 30
Last Quarter
Jul 8
New
Jul 16
First Quarter
Jul 23
Full

Hourly Weather History & Observations

Time (ChST) Temp. Heat Index Dew Point Humidity Pressure Visibility Wind Dir Wind Speed Gust Speed Precip Events Conditions
12:54 AM 80.1 °F 85.1 °F 75.0 °F 85% 30.00 in 10.0 mi East 10.4 mph - N/A   Mostly Cloudy
1:54 AM 78.1 °F - 71.1 °F 79% 29.99 in 10.0 mi East 8.1 mph - N/A   Mostly Cloudy
2:54 AM 79.0 °F - 75.0 °F 88% 29.97 in 10.0 mi East 8.1 mph - N/A   Partly Cloudy
3:54 AM 75.9 °F - 72.0 °F 87% 29.97 in 10.0 mi East 5.8 mph - N/A   Clear
4:54 AM 78.1 °F - 73.9 °F 87% 29.97 in 10.0 mi East 8.1 mph - N/A   Mostly Cloudy
5:54 AM 79.0 °F - 73.9 °F 84% 29.97 in 10.0 mi East 11.5 mph - N/A   Scattered Clouds
6:54 AM 81.0 °F 86.7 °F 75.0 °F 82% 29.99 in 10.0 mi East 12.7 mph - N/A   Mostly Cloudy
7:54 AM 82.0 °F 87.9 °F 73.9 °F 76% 29.98 in 10.0 mi ENE 11.5 mph - N/A   Scattered Clouds
8:54 AM 84.0 °F 92.6 °F 75.9 °F 76% 29.99 in 10.0 mi East 16.1 mph 19.6 mph N/A   Scattered Clouds
9:54 AM 84.0 °F 91.9 °F 75.0 °F 74% 29.99 in 10.0 mi East 16.1 mph - N/A   Scattered Clouds
10:54 AM 82.9 °F 91.8 °F 77.0 °F 82% 29.99 in 10.0 mi East 13.8 mph - 0.01 in Rain Light Rain
11:54 AM 84.9 °F 93.3 °F 75.0 °F 72% 29.99 in 10.0 mi East 15.0 mph - 0.00 in   Scattered Clouds
12:54 PM 86.0 °F 96.0 °F 75.9 °F 72% 29.98 in 10.0 mi East 15.0 mph - N/A   Scattered Clouds
1:54 PM 86.0 °F 95.1 °F 75.0 °F 70% 29.97 in 10.0 mi East 16.1 mph - N/A   Partly Cloudy
2:54 PM 84.9 °F 94.1 °F 75.9 °F 74% 29.96 in 10.0 mi ENE 11.5 mph - 0.00 in   Scattered Clouds
3:54 PM 82.0 °F 90.2 °F 77.0 °F 85% 29.95 in 10.0 mi East 11.5 mph - 0.02 in   Partly Cloudy
4:21 PM 80.6 °F 86.2 °F 75.2 °F 84% 29.89 in 10.0 mi ESE 9.2 mph - N/A   Mostly Cloudy
4:28 PM 80.6 °F 86.2 °F 75.2 °F 84% 29.88 in 10.0 mi ESE 10.4 mph - N/A   Scattered Clouds
4:54 PM 82.9 °F 91.8 °F 77.0 °F 82% 29.95 in 10.0 mi East 13.8 mph - N/A   Partly Cloudy
5:54 PM 81.0 °F 87.3 °F 75.9 °F 85% 29.96 in 9.0 mi East 13.8 mph - N/A   Scattered Clouds
6:54 PM 80.1 °F 85.1 °F 75.0 °F 85% 29.98 in 10.0 mi East 10.4 mph - N/A   Scattered Clouds
7:54 PM 80.1 °F 85.1 °F 75.0 °F 85% 29.99 in 10.0 mi East 9.2 mph - N/A   Scattered Clouds
8:54 PM 80.1 °F 84.5 °F 73.9 °F 81% 30.01 in 10.0 mi East 12.7 mph - N/A   Mostly Cloudy
9:12 PM 78.8 °F - 75.2 °F 89% 29.95 in 10.0 mi ESE 6.9 mph - 0.00 in Rain Light Rain
9:37 PM 78.8 °F - 75.2 °F 89% 29.95 in 10.0 mi East 11.5 mph - 0.00 in   Scattered Clouds
9:54 PM 80.1 °F 85.1 °F 75.0 °F 85% 30.02 in 10.0 mi East 11.5 mph - 0.00 in   Scattered Clouds
10:54 PM 79.0 °F - 75.0 °F 88% 30.02 in 10.0 mi East 10.4 mph - N/A   Partly Cloudy
11:54 PM 80.1 °F 85.1 °F 75.0 °F 85% 30.01 in 10.0 mi East 10.4 mph - N/A   Scattered Clouds